Torna al catalogo

FSI-SAT 2

AttivoRadioamatoreSSO
NORAD 68792·PAYLOAD·🇯🇵 Japan

Lanciato Apr 23, 2026 da Rocket Lab Launch Complex 1

Loading…

Prossimi Passaggi (prossime 24 ore)

TLE

AggiornatoSource: AMSAT

Epoca: Sep 13, 2026, 09:19 UTC

1 68792U 26088A   26256.38876209  .00002838  00000-0  19101-3 0  9996
2 68792  97.5192  43.5366 0014716 160.3638 199.8160 15.07427793 21574

Traccia FSI-SAT 2 in tempo reale con AllMySat

Download on the App Store